Location: Newark
(52.3735°N, 16.9806°E)
Time: 04:10:35
(UTC+00:00)

LilacSat-2 - Pass Details

Date: 01 December 2021
Orbit: 511 x 532 km, 97.5° (Epoch: 16 January)

Event Time Altitude Azimuth Distance (km) Brightness Sun altitude
Rises 04:08:39 0° 22° (NNE) 2,684 ? -22.0°
Reaches altitude 10° 04:10:58 10° 33° (NNE) 1,792 ? -21.6°
Maximum altitude 04:14:23 29° 95° (E) 998 ? -21.1°
Drops below altitude 10° 04:17:47 10° 157° (SSE) 1,783 ? -20.6°
Sets 04:20:05 0° 169° (SSE) 2,669 ? -20.3°
